Regional Weather Roundup
Issued by NWS New Orleans/Baton Rouge, LA

Home | Current Version | Previous Version | Text Only | Print | Product List | Glossary On
Versions: 1 2 3 4 5 6 7 8 9 10 11 12 13 14 15 16 17 18 19 20 21 22 23 24 25 26 27 28 29 30 31 32 33 34 35 36 37 38 39 40 41 42 43 44 45 46 47 48 49 50
000
ASUS44 KLIX 110510
RWRLIX
NEW ORLEANS REGIONAL WEATHER ROUNDUP
NATIONAL WEATHER SERVICE NEW ORLEANS LA
1100 PM CST WED FEB 10 2016

NOTE: "FAIR" INDICATES FEW OR NO CLOUDS BELOW 12,000 FEET WITH NO
      SIGNIFICANT WEATHER AND/OR OBSTRUCTIONS TO VISIBILITY.
      SKY/WX - SKY CONDITION AND SIGNIFICANT WEATHER.
      TMP - AIR TEMPERATURE.     DP    - DEWPOINT TEMPERATURE.
      RH  - RELATIVE HUMIDITY.   PRES  - PRESSURE.
      HI  - HEAT INDEX.          WCI   - WIND CHILL INDEX.

*  THESE STATIONS ARE NOT NWS OR FAA STATIONS AND ARE NOT UNDER
   NWS QUALITY CONTROL.

LAZ038-040-048-061>063-065>067-069-110600-
SOUTHEAST LOUISIANA

CITY           SKY/WX    TMP DP  RH WIND       PRES   REMARKS
N.O. AUDUBON     N/A     45  38  75 MISG        N/A
N.O. INTL ARPT PTCLDY    48  29  47 SW12      30.25F
N.O. LAKEFRONT CLEAR     48  33  56 SW14      30.26F
N.O. DOWNTOWN*   N/A     48  32  53 MISG      30.27F
RESERVE*         N/A     46  34  64 SW6       30.25F
SLIDELL        CLEAR     49  36  61 SW7       30.24S
BATON ROUGE    CLEAR     48  36  63 SW14      30.22F
BOOTHVILLE     CLEAR     54  40  59 SW9       30.27F
BELLE CHASSE   PTCLDY    44  36  73 SW6       30.26F
BOGALUSA*        N/A     45  32  61 SW5       30.23S
GALLIANO*      CLEAR     47  41  80 SW6       30.28F
NEW ROADS*       N/A     46  35  66 S5        30.22F
GONZALES*        N/A     44  37  74 S3        30.24F
HAMMOND*       CLEAR     46  32  57 SW7       30.23F
HOUMA*         CLEAR     42  38  83 CALM      30.27F
PORT FOURCHON* CLEAR     54  43  66 SW8       30.29F

$$

MSZ070-080>082-110600-
SOUTHERN MISSISSIPPI

CITY           SKY/WX    TMP DP  RH WIND       PRES   REMARKS
MCCOMB         CLEAR     47  32  56 SW9       30.19S
GULFPORT       CLEAR     49  39  68 SW9       30.23S
BILOXI         CLEAR     49  41  73 SW15G23   30.23S
PASCAGOULA     CLEAR     49  38  65 SW6       30.22F

$$

COASTAL OBSERVATIONS
LAKE AND NEARSHORE STATIONS

STATION/POSITION TIME  TEMP    WIND        PRES    WAVE
                       AIR SEA DIR/SP/G            HT/PER
                 (UTC) (F)     (DEG/KT/KT) (MB)    (FT/S)
PASCAGOULA       0400   52     230/ 18/ 21 1023.2
WAVELAND YACHT   0400   49 51  230/  9/ 14 1023.6
GRAND ISLE       0400   52 55  250/ 10/ 13 1025.5
NEW CANAL        0400   49 52  220/  7/ 13 1023.9
SHELL BEACH      0400   48 51  220/ 12/ 15 1024.0

OFFSHORE STATIONS

STATION/POSITION TIME  TEMP    WIND        PRES    WAVE
                       AIR SEA DIR/SP/G            HT/PER
                 (UTC) (F)     (DEG/KT/KT) (MB)    (FT/S)

$$




USA.gov is the U.S. government's official web portal to all federal, state and local government web resources and services.